Time,TemperatureF,DewpointF,PressureIn,WindDirection,WindDirectionDegrees,WindSpeedMPH,WindSpeedGustMPH,Humidity,HourlyPrecipIn,Conditions,Clouds,dailyrainin,SoftwareType,DateUTC
2013-05-18 00:00:00,59.0,46.8,29.88,WNW,292,2.0,9.0,64,0.00,,,0.00,Weather View 32 v70,2013-05-18 07:00:00,
2013-05-18 00:30:00,58.0,47.9,29.88,WNW,292,6.0,11.0,69,0.00,,,0.00,Weather View 32 v70,2013-05-18 07:30:00,
2013-05-18 01:00:00,57.0,48.8,29.88,NW,315,0.0,11.0,74,0.00,,,0.00,Weather View 32 v70,2013-05-18 08:00:00,
2013-05-18 01:30:00,55.0,49.9,29.88,NNW,337,0.0,8.0,83,0.00,,,0.00,Weather View 32 v70,2013-05-18 08:30:00,
2013-05-18 02:00:00,53.0,49.2,29.87,WNW,292,0.0,1.0,87,0.00,,,0.00,Weather View 32 v70,2013-05-18 09:00:00,
2013-05-18 02:30:00,55.0,49.6,29.87,WNW,292,3.0,9.0,82,0.00,,,0.00,Weather View 32 v70,2013-05-18 09:30:00,
2013-05-18 03:00:00,53.0,48.6,29.87,West,270,0.0,9.0,85,0.00,,,0.00,Weather View 32 v70,2013-05-18 10:00:00,
2013-05-18 03:30:00,52.0,47.9,29.87,WNW,292,2.0,6.0,86,0.00,,,0.00,Weather View 32 v70,2013-05-18 10:30:00,
2013-05-18 04:00:00,52.0,47.6,29.87,WNW,292,2.0,6.0,85,0.00,,,0.00,Weather View 32 v70,2013-05-18 11:00:00,
2013-05-18 04:30:00,51.0,47.6,29.87,WNW,292,0.0,6.0,88,0.00,,,0.00,Weather View 32 v70,2013-05-18 11:30:00,
2013-05-18 05:00:00,49.0,47.3,29.87,WNW,292,0.0,5.0,94,0.00,,,0.00,Weather View 32 v70,2013-05-18 12:00:00,
2013-05-18 05:30:00,48.0,45.8,29.88,WNW,292,0.0,0.0,92,0.00,,,0.00,Weather View 32 v70,2013-05-18 12:30:00,
2013-05-18 06:00:00,47.0,38.4,29.88,WNW,292,0.0,0.0,72,0.00,,,0.00,Weather View 32 v70,2013-05-18 13:00:00,
2013-05-18 06:30:00,48.0,39.7,29.91,WNW,292,0.0,0.0,73,0.00,,,0.00,Weather View 32 v70,2013-05-18 13:30:00,
2013-05-18 07:00:00,52.0,47.9,29.94,SSW,202,1.0,3.0,86,0.00,,,0.00,Weather View 32 v70,2013-05-18 14:00:00,
2013-05-18 07:30:00,57.0,53.5,29.98,WNW,292,0.0,6.0,88,0.00,,,0.00,Weather View 32 v70,2013-05-18 14:30:00,
2013-05-18 08:00:00,61.0,53.0,30.01,WNW,292,0.0,6.0,75,0.00,,,0.00,Weather View 32 v70,2013-05-18 15:00:00,
2013-05-18 08:30:00,63.0,51.4,30.02,SW,225,0.0,3.0,66,0.00,,,0.00,Weather View 32 v70,2013-05-18 15:30:00,
2013-05-18 09:00:00,66.0,49.8,30.04,ENE,67,0.0,3.0,56,0.00,,,0.00,Weather View 32 v70,2013-05-18 16:00:00,
2013-05-18 09:30:00,67.0,48.2,30.05,WSW,247,0.0,6.0,51,0.00,,,0.00,Weather View 32 v70,2013-05-18 16:30:00,
2013-05-18 10:00:00,69.0,48.4,30.06,SSW,202,0.0,8.0,48,0.00,,,0.00,Weather View 32 v70,2013-05-18 17:00:00,
2013-05-18 10:30:00,71.0,49.7,30.05,West,270,6.0,8.0,47,0.00,,,0.00,Weather View 32 v70,2013-05-18 17:30:00,
2013-05-18 11:00:00,71.0,47.3,30.06,North,360,0.0,8.0,43,0.00,,,0.00,Weather View 32 v70,2013-05-18 18:00:00,
2013-05-18 11:30:00,72.0,49.4,30.05,West,270,0.0,11.0,45,0.00,,,0.00,Weather View 32 v70,2013-05-18 18:30:00,
2013-05-18 12:00:00,74.0,49.4,30.05,WNW,292,9.0,12.0,42,0.00,,,0.00,Weather View 32 v70,2013-05-18 19:00:00,
2013-05-18 12:30:00,74.0,47.4,30.04,SW,225,0.0,13.0,39,0.00,,,0.00,Weather View 32 v70,2013-05-18 19:30:00,
2013-05-18 13:00:00,76.0,43.1,30.04,WNW,292,9.0,15.0,31,0.00,,,0.00,Weather View 32 v70,2013-05-18 20:00:00,
2013-05-18 13:30:00,77.0,43.1,30.03,WNW,292,6.0,15.0,30,0.00,,,0.00,Weather View 32 v70,2013-05-18 20:30:00,
2013-05-18 14:00:00,78.0,44.0,30.03,NNW,337,7.0,15.0,30,0.00,,,0.00,Weather View 32 v70,2013-05-18 21:00:00,
2013-05-18 14:30:00,79.0,43.9,30.03,WNW,292,6.0,14.0,29,0.00,,,0.00,Weather View 32 v70,2013-05-18 21:30:00,
2013-05-18 14:35:00,79.0,43.9,30.03,WNW,292,6.0,14.0,29,0.00,,,0.00,Weather View 32 v70,2013-05-18 21:35:00,
2013-05-18 15:00:00,80.0,43.9,30.03,WNW,292,5.0,14.0,28,0.00,,,0.00,Weather View 32 v70,2013-05-18 22:00:00,
2013-05-18 15:30:00,81.0,43.8,30.02,WNW,292,4.0,13.0,27,0.00,,,0.00,Weather View 32 v70,2013-05-18 22:30:00,
2013-05-18 16:00:00,80.0,41.9,30.01,WNW,292,5.0,13.0,26,0.00,,,0.00,Weather View 32 v70,2013-05-18 23:00:00,
2013-05-18 16:30:00,81.0,39.6,30.01,WNW,292,0.0,13.0,23,0.00,,,0.00,Weather View 32 v70,2013-05-18 23:30:00,
2013-05-18 17:00:00,80.0,39.9,30.01,WNW,292,9.0,15.0,24,0.00,,,0.00,Weather View 32 v70,2013-05-19 00:00:00,
2013-05-18 17:30:00,79.0,37.9,29.99,NW,315,6.0,15.0,23,0.00,,,0.00,Weather View 32 v70,2013-05-19 00:30:00,
2013-05-18 18:00:00,79.0,36.8,29.98,NNW,337,6.0,15.0,22,0.00,,,0.00,Weather View 32 v70,2013-05-19 01:00:00,
2013-05-18 18:30:00,79.0,36.8,29.97,WNW,292,5.0,15.0,22,0.00,,,0.00,Weather View 32 v70,2013-05-19 01:30:00,
2013-05-18 19:00:00,78.0,38.2,29.97,WNW,292,6.0,15.0,24,0.00,,,0.00,Weather View 32 v70,2013-05-19 02:00:00,
2013-05-18 19:30:00,76.0,40.5,29.96,WNW,292,3.0,13.0,28,0.00,,,0.00,Weather View 32 v70,2013-05-19 02:30:00,
2013-05-18 20:00:00,72.0,41.2,29.95,WNW,292,1.0,10.0,33,0.00,,,0.00,Weather View 32 v70,2013-05-19 03:00:00,
2013-05-18 20:30:00,69.0,43.6,29.94,West,270,1.0,10.0,40,0.00,,,0.00,Weather View 32 v70,2013-05-19 03:30:00,
2013-05-18 21:00:00,67.0,42.5,29.93,WNW,292,0.0,7.0,41,0.00,,,0.00,Weather View 32 v70,2013-05-19 04:00:00,
2013-05-18 21:30:00,67.0,41.2,29.92,WNW,292,6.0,9.0,39,0.00,,,0.00,Weather View 32 v70,2013-05-19 04:30:00,
2013-05-18 22:00:00,67.0,41.2,29.93,WNW,292,3.0,9.0,39,0.00,,,0.00,Weather View 32 v70,2013-05-19 05:00:00,
2013-05-18 22:30:00,66.0,42.8,29.93,NW,315,2.0,9.0,43,0.00,,,0.00,Weather View 32 v70,2013-05-19 05:30:00,
2013-05-18 23:00:00,65.0,43.1,29.93,WNW,292,0.0,7.0,45,0.00,,,0.00,Weather View 32 v70,2013-05-19 06:00:00,
2013-05-18 23:30:00,65.0,44.2,29.93,WNW,292,7.0,9.0,47,0.00,,,0.00,Weather View 32 v70,2013-05-19 06:30:00,